sat.trackr.live / text

‹ back to catalog

STARLINK-2745

NORAD 48671 · 2021-044AK

PAYLOAD ACTIVE UNKNOWN

§ Identity

Operator
Country
US
Launch date
2021-05-26
Launch site
AFETR
Launch vehicle
Mass (kg)
RCS (m²)

Purposes: comms

External: N2YO · Heavens-Above · Gunter

§ Orbital elements

Epoch: 2026-05-25T05:03:15.693120Z

Period
94.16 min
Inclination
53.1590°
Eccentricity
0.0001039
Mean motion
15.29362520 rev/d
Perigee alt
477.0 km
Apogee alt
478.4 km
Semi-major
6,855.9 km
B*
-2.0051e-5
RAAN
118.5295°
Arg perigee
75.2730°
Mean anomaly
284.8386°
Rev number
27,552

§ Raw data

STARLINK-27451 48671U 21044AK  26145.21059830 -.00000934  00000+0 -20051-4 0  99922 48671  53.1590 118.5295 0001039  75.2730 284.8386 15.29362520275524

JSON: /api/v1/satellites/48671 · /tle

For live sub-satellite position, see the globe view (requires WebGL).

§ Visibility from observer

Set your observer location to see the next 7 days of passes ≥ 10°. The values pass through the URL so the page stays shareable.

No JS? Fill the form by hand. The geolocation button needs JavaScript.